CAPE
nan nan nan nan nan nan nan nan nan nan nan nan nan nan nan nan nan nan nan nan nan nan nan nan nan nan nan nan nan nan nan nan nan nan nan nan nan nan nan nan nan nan nan nan nan nan nan nan nan nan nan nan nan nan nan 0 0 1 2 4 4 5 10 18 18 27 35 41 45 45 48 55 56 56 60 61 60 60 58 56 56 61 65 71 71 74
nan nan nan nan nan nan nan nan nan nan nan nan nan nan nan nan nan nan nan nan nan nan nan nan nan nan nan nan nan nan nan nan nan nan nan nan nan nan nan nan nan nan nan nan nan nan nan nan nan nan nan nan nan nan nan 0 0 1 1 3 3 5 10 19 19 29 37 42 45 45 49 51 54 54 56 55 50 50 50 51 51 59 72 75 75 80
nan nan nan nan nan nan nan nan nan nan nan nan nan nan nan nan nan nan nan nan nan nan nan nan nan nan nan nan nan nan nan nan nan nan nan nan nan nan nan nan nan nan nan nan nan nan nan nan nan nan nan nan nan nan nan nan nan 0 1 2 2 5 10 18 18 27 33 39 45 45 46 49 50 50 48 45 44 44 46 50 50 65 77 80 80 87
nan nan nan nan nan nan nan nan nan nan nan nan nan nan nan nan nan nan nan nan nan nan nan nan nan nan nan nan nan nan nan nan nan nan nan nan nan nan nan nan nan nan nan nan nan nan nan nan nan nan nan nan nan nan nan nan nan nan 0 2 2 6 11 17 17 25 28 34 38 38 42 45 42 42 41 42 44 44 50 58 58 71 77 82 82 95
nan nan nan nan nan nan nan nan nan nan nan nan nan nan nan nan nan nan nan nan nan nan nan nan nan nan nan nan nan nan nan nan nan nan nan nan nan nan nan nan nan nan nan nan nan nan nan nan nan nan nan nan nan nan nan nan nan nan 0 2 2 7 13 19 19 24 25 28 33 33 35 37 37 37 40 41 46 46 52 65 65 78 81 87 87 100
nan nan nan nan nan nan nan nan nan nan nan nan nan nan nan nan nan nan nan nan nan nan nan nan nan nan nan nan nan nan nan nan nan nan nan nan nan nan nan nan nan nan nan nan nan nan nan nan nan nan nan nan nan nan nan nan nan nan 0 3 3 8 14 21 21 24 25 27 30 30 36 35 36 36 41 43 45 45 52 66 66 80 81 88 88 97
nan nan nan nan nan nan nan nan nan nan nan nan nan nan nan nan nan nan nan nan nan nan nan nan nan nan nan nan nan nan nan nan nan nan nan nan nan nan nan nan nan nan nan nan nan nan nan nan nan nan nan nan nan nan nan nan nan nan 0 5 5 9 16 22 22 26 27 28 30 30 35 36 38 38 38 40 44 44 51 64 64 78 85 89 89 98
nan nan nan nan nan nan nan nan nan nan nan nan nan nan nan nan nan nan nan nan nan nan nan nan nan nan nan nan nan nan nan nan nan nan nan nan nan nan nan nan nan nan nan nan nan nan nan nan nan nan nan nan nan nan nan nan nan 0 3 7 7 15 20 26 26 27 29 30 34 34 37 36 37 37 39 47 49 49 55 60 60 69 75 86 86 101
nan nan nan nan nan nan nan nan nan nan nan nan nan nan nan nan nan nan nan nan nan nan nan nan nan nan nan nan nan nan nan nan nan nan nan nan nan nan nan nan nan nan nan nan nan nan nan nan nan nan nan nan nan nan nan 0 0 1 5 9 9 16 22 27 27 28 29 31 34 34 35 36 39 39 43 47 51 51 54 56 56 61 69 84 84 106
nan nan nan nan nan nan nan nan nan nan nan nan nan nan nan nan nan nan nan nan nan nan nan nan nan nan nan nan nan nan nan nan nan nan nan nan nan nan nan nan nan nan nan nan nan nan nan nan nan nan nan nan nan nan 0 1 1 4 7 13 13 18 24 27 27 27 28 30 33 33 35 36 37 37 45 45 49 49 50 53 53 55 67 84 84 110
nan nan nan nan nan nan nan nan nan nan nan nan nan nan nan nan nan nan nan nan nan nan nan nan nan nan nan nan nan nan nan nan nan nan nan nan nan nan nan nan nan nan nan nan nan nan nan nan nan nan nan nan nan nan 1 2 2 7 10 14 14 20 25 27 27 26 26 28 32 32 33 35 40 40 42 45 47 47 48 50 50 55 65 85 85 104
nan nan nan nan nan nan nan nan nan nan nan nan nan nan nan nan nan nan nan nan nan nan nan nan nan nan nan nan nan nan nan nan nan nan nan nan nan nan nan nan nan nan nan nan nan nan nan nan nan nan nan nan 1 1 2 4 4 9 14 18 18 21 24 25 25 25 26 27 33 33 34 35 37 37 42 44 47 47 47 50 50 56 71 87 87 93
nan nan nan nan nan nan nan nan nan nan nan nan nan nan nan nan nan nan nan nan nan nan nan nan nan nan nan nan nan nan nan nan nan nan nan nan nan nan nan nan nan nan nan nan nan nan nan nan nan nan nan nan 3 3 6 9 9 12 16 19 19 22 24 23 23 23 25 28 31 31 35 35 38 38 43 45 47 47 45 52 52 60 73 81 81 78
nan nan nan nan nan nan nan nan nan nan nan nan nan nan nan nan nan nan nan nan nan nan nan nan nan nan nan nan nan nan nan nan nan nan nan nan nan nan nan nan nan nan nan nan nan nan nan nan nan nan nan nan 2 2 7 12 12 14 17 19 19 21 22 22 22 23 24 28 32 32 33 36 39 39 43 46 45 45 45 52 52 64 77 78 78 65
nan nan nan nan nan nan nan nan nan nan nan nan nan nan nan nan nan nan nan nan nan nan nan nan nan nan nan nan nan nan nan nan nan nan nan nan nan nan nan nan nan nan nan nan nan nan nan nan nan nan nan nan 2 2 5 10 10 15 16 17 17 18 20 22 22 25 24 29 30 30 33 34 38 38 40 43 44 44 48 58 58 68 74 63 63 53
nan nan nan nan nan nan nan nan nan nan nan nan nan nan nan nan nan nan nan nan nan nan nan nan nan nan nan nan nan nan nan nan nan nan nan nan nan nan nan nan nan nan nan nan nan nan nan nan nan nan nan nan 8 8 10 13 13 15 15 16 16 18 19 22 22 24 26 29 31 31 32 35 38 38 40 42 44 44 52 62 62 71 66 50 50 47
nan nan nan nan nan nan nan nan nan nan nan nan nan nan nan nan nan nan nan nan nan nan nan nan nan nan nan nan nan nan nan nan nan nan nan nan nan nan nan nan nan nan nan nan nan nan nan nan nan nan nan 8 10 10 10 13 13 15 15 15 15 17 19 22 22 23 26 28 31 31 31 33 37 37 41 40 47 47 55 65 65 65 50 42 42 41
nan nan nan nan nan nan nan nan nan nan nan nan nan nan nan nan nan nan nan nan nan nan nan nan nan nan nan nan nan nan nan nan nan nan nan nan nan nan nan nan nan nan nan nan nan nan nan nan nan nan nan 13 10 10 11 13 13 14 15 15 15 18 19 21 21 23 26 29 30 30 33 32 37 37 38 42 47 47 63 66 66 55 41 36 36 33
nan nan nan nan nan nan nan nan nan nan nan nan nan nan nan nan nan nan nan nan nan nan nan nan nan nan nan nan nan nan nan nan nan nan nan nan nan nan nan nan nan nan nan nan nan nan nan nan nan nan 17 11 10 10 12 12 12 14 15 16 16 18 19 21 21 24 25 29 32 32 31 32 37 37 39 40 49 49 61 62 62 46 35 31 31 28
nan nan nan nan nan nan nan nan nan nan nan nan nan nan nan nan nan nan nan nan nan nan nan nan nan nan nan nan nan nan nan nan nan nan nan nan nan nan nan nan nan nan nan nan nan nan nan nan nan nan 10 10 9 9 11 11 11 12 14 16 16 17 18 20 20 22 27 27 28 28 28 31 37 37 38 40 52 52 62 55 55 39 32 29 29 27
nan nan nan nan nan nan nan nan nan nan nan nan nan nan nan nan nan nan nan nan nan nan nan nan nan nan nan nan nan nan nan nan nan nan nan nan nan nan nan nan nan nan nan nan nan nan nan nan nan nan 3 8 10 10 9 10 10 12 12 16 16 18 18 20 20 22 25 27 29 29 28 32 34 34 37 41 49 49 61 52 52 40 32 28 28 25
nan nan nan nan nan nan nan nan nan nan nan nan nan nan nan nan nan nan nan nan nan nan nan nan nan nan nan nan nan nan nan nan nan nan nan nan nan nan nan nan nan nan nan nan nan nan nan nan nan nan nan 12 8 8 8 9 9 11 12 14 14 17 18 18 18 20 23 26 26 26 28 31 33 33 36 40 50 50 58 49 49 41 32 26 26 22
nan nan nan nan nan nan nan nan nan nan nan nan nan nan nan nan nan nan nan nan nan nan nan nan nan nan nan nan nan nan nan nan nan nan nan nan nan nan nan nan nan nan nan nan nan nan nan nan nan nan nan 9 7 7 8 8 8 10 12 14 14 16 16 16 16 19 20 24 27 27 28 30 32 32 35 40 46 46 59 50 50 40 33 25 25 21
nan nan nan nan nan nan nan nan nan nan nan nan nan nan nan nan nan nan nan nan nan nan nan nan nan nan nan nan nan nan nan nan nan nan nan nan nan nan nan nan nan nan nan nan nan nan nan nan nan nan nan 0 5 5 7 8 8 9 11 12 12 15 15 15 15 17 19 22 23 23 27 29 29 29 33 37 42 42 50 48 48 40 31 24 24 19
nan nan nan nan nan nan nan nan nan nan nan nan nan nan nan nan nan nan nan nan nan nan nan nan nan nan nan nan nan nan nan nan nan nan nan nan nan nan nan nan nan nan nan nan nan nan nan nan nan nan nan nan 1 1 6 7 7 8 10 12 12 14 14 14 14 15 17 20 23 23 26 27 28 28 32 36 40 40 53 46 46 40 30 22 22 17
nan nan nan nan nan nan nan nan nan nan nan nan nan nan nan nan nan nan nan nan nan nan nan nan nan nan nan nan nan nan nan nan nan nan nan nan nan nan nan nan nan nan nan nan nan nan nan nan nan nan nan nan nan nan 4 5 5 7 8 11 11 12 14 15 15 16 18 20 23 23 24 26 26 26 29 32 38 38 42 41 41 35 28 21 21 16
2 1 2 2 2 1 nan nan nan nan nan nan nan nan nan nan nan nan nan nan nan nan nan nan nan nan nan nan nan nan nan nan nan nan nan nan nan nan nan nan nan nan nan nan nan nan nan nan nan nan nan nan nan nan 1 3 3 4 6 9 9 12 14 15 15 16 17 19 22 22 23 24 25 25 27 30 32 32 40 39 39 33 25 18 18 10
4 4 4 3 3 1 nan nan nan nan nan nan nan nan nan nan nan nan nan nan nan nan nan nan nan nan nan nan nan nan nan nan nan nan nan nan nan nan nan nan nan nan nan nan nan nan nan nan nan nan nan nan nan nan nan nan nan nan 1 6 6 11 15 16 16 16 17 20 22 22 22 22 24 24 27 27 31 31 36 35 35 25 17 1 1 nan
6 6 5 2 2 0 nan nan nan nan nan nan nan nan nan nan nan nan nan nan nan nan nan nan nan nan nan nan nan nan nan nan nan nan nan nan nan nan nan nan nan nan nan nan nan nan nan nan nan nan nan nan nan nan nan nan nan nan nan nan nan 5 13 15 15 16 18 20 20 20 21 20 21 21 23 26 30 30 33 30 30 27 5 nan nan nan
5 5 2 1 1 nan nan nan nan nan nan nan nan nan nan nan nan nan nan nan nan nan nan nan nan nan nan nan nan nan nan nan nan nan nan nan nan nan nan nan nan nan nan nan nan nan nan nan nan nan nan nan nan nan nan nan nan nan nan nan nan nan 8 11 11 15 15 16 19 19 19 19 20 20 23 24 29 29 30 31 31 17 nan nan nan nan
nan nan nan nan nan nan nan nan nan nan nan nan nan nan nan nan nan nan nan nan nan nan nan nan nan nan nan nan nan nan nan nan nan nan nan nan nan nan nan nan nan nan nan nan nan nan nan nan nan nan nan nan nan nan nan nan nan nan nan nan nan nan 3 6 6 9 14 15 15 15 15 17 18 18 19 22 26 26 28 31 31 12 nan nan nan nan
nan nan nan nan nan nan nan nan nan nan nan nan nan nan nan nan nan nan nan nan nan nan nan nan nan nan nan nan nan nan nan nan nan nan nan nan nan nan nan nan nan nan nan nan nan nan nan nan nan nan nan nan nan nan nan nan nan nan nan nan nan nan nan nan nan nan nan 4 12 12 12 9 11 11 15 18 22 22 24 27 27 21 nan nan nan nan
nan nan nan nan nan nan nan nan nan nan nan nan nan nan nan nan nan nan nan nan nan nan nan nan nan nan nan nan nan nan nan nan nan nan nan nan nan nan nan nan nan nan nan nan nan nan nan nan nan nan nan nan nan nan nan nan nan nan nan nan nan nan nan nan nan nan nan nan nan nan 6 6 10 10 12 16 19 19 22 25 25 22 7 nan nan nan
nan nan nan nan nan nan nan nan nan nan nan nan nan nan nan nan nan nan nan nan nan nan nan nan nan nan nan nan nan nan nan nan nan nan nan nan nan nan nan nan nan nan nan nan nan nan nan nan nan nan nan nan nan nan nan nan nan nan nan nan nan nan nan nan nan nan nan nan nan nan nan nan 1 1 6 15 17 17 19 20 20 18 15 6 6 nan
nan nan nan nan nan nan nan nan nan nan nan nan nan nan nan nan nan nan nan nan nan nan nan nan nan nan nan nan nan nan nan nan nan nan nan nan nan nan nan nan nan nan nan nan nan nan nan nan nan nan nan nan nan nan nan nan nan nan nan nan nan nan nan nan nan nan nan nan nan nan nan nan nan nan nan 9 15 15 19 19 19 16 12 12 12 0
nan nan nan nan nan nan nan nan nan nan nan nan nan nan nan nan nan nan nan nan nan nan nan nan nan nan nan nan nan nan nan nan nan nan nan nan nan nan nan nan nan nan nan nan nan nan nan nan nan nan nan nan nan nan nan nan nan nan nan nan nan nan nan nan nan nan nan nan nan nan nan nan nan nan nan 5 9 9 11 13 13 13 7 6 6 5
nan nan nan nan nan nan nan nan nan nan nan nan nan nan nan nan nan nan nan nan nan nan nan nan nan nan nan nan nan nan nan nan nan nan nan nan nan nan nan nan nan nan nan nan nan nan nan nan nan nan nan nan nan nan nan nan nan nan nan nan nan nan nan nan nan nan nan nan nan nan nan nan nan nan nan 1 nan nan 1 8 8 7 4 1 1 1
nan nan nan nan nan nan nan nan nan nan nan nan nan nan nan nan nan nan nan nan nan nan nan nan nan nan nan nan nan nan nan nan nan nan nan nan nan nan nan nan nan nan nan nan nan nan nan nan nan nan nan nan nan nan nan nan nan nan nan nan nan nan nan nan nan nan nan nan nan nan nan nan nan nan nan nan nan nan nan nan nan 1 nan nan nan nan
nan nan nan nan nan nan nan nan nan nan nan nan nan nan nan nan nan nan nan nan nan nan nan nan nan nan nan nan nan nan nan nan nan nan nan nan nan nan nan nan nan nan nan nan nan nan nan nan nan nan nan nan nan nan nan nan nan nan nan nan nan nan nan nan nan nan nan nan nan nan nan nan nan nan nan nan nan nan nan nan nan nan nan nan nan nan
nan nan nan nan nan nan nan nan nan nan nan nan nan nan nan nan nan nan nan nan nan nan nan nan nan nan nan nan nan nan nan nan nan nan nan nan nan nan nan nan nan nan nan nan nan nan nan nan nan nan nan nan nan nan nan nan nan nan nan nan nan nan nan nan nan nan nan nan nan nan nan nan nan nan nan nan nan nan nan nan nan nan nan nan nan nan
nan nan nan nan nan nan nan nan nan nan nan nan nan nan nan nan nan nan nan nan nan nan nan nan nan nan nan nan nan nan nan nan nan nan nan nan nan nan nan nan nan nan nan nan nan nan nan nan nan nan nan nan nan nan nan nan nan nan nan nan nan nan nan nan nan nan nan nan nan nan nan nan nan nan nan nan nan nan nan nan nan nan nan nan nan nan
0 nan nan nan nan nan nan nan nan nan nan nan nan nan nan nan nan nan nan nan nan nan nan nan nan nan nan nan nan nan nan nan nan nan nan nan nan nan nan nan nan nan nan nan nan nan nan nan nan nan nan nan nan nan nan nan nan nan nan nan nan nan nan nan nan nan nan nan nan nan nan nan nan nan nan nan nan nan nan nan nan nan nan nan nan nan
nan nan nan nan nan nan nan nan nan nan nan nan nan nan nan nan nan nan nan nan nan nan nan nan nan nan nan nan nan nan nan nan nan nan nan nan nan nan nan nan nan nan nan nan nan nan nan nan nan nan nan nan nan nan nan nan nan nan nan nan nan nan nan nan nan nan nan nan nan nan nan nan nan nan nan nan nan nan nan nan nan 2 nan nan nan nan
nan nan nan nan nan nan nan nan nan nan nan nan nan nan nan nan nan nan nan nan nan nan nan nan nan nan nan nan nan nan nan nan nan nan nan nan nan nan nan nan nan nan nan nan nan nan nan nan nan nan nan nan nan nan nan nan nan nan nan nan nan nan nan nan nan nan nan nan nan nan nan nan nan nan nan nan nan nan nan nan nan nan nan nan nan nan
nan nan nan nan nan nan nan nan nan nan nan nan nan nan nan nan nan nan nan nan nan nan nan nan nan nan nan nan nan nan nan nan nan nan nan nan 0 0 nan nan nan nan nan nan nan nan nan nan nan nan nan nan nan nan nan nan nan nan nan nan nan nan nan nan nan nan nan nan nan nan nan nan nan nan nan nan nan nan nan nan nan nan nan nan nan nan
nan nan nan nan nan nan nan nan nan nan nan nan nan nan nan nan nan nan nan nan nan nan nan nan nan nan nan nan nan nan nan nan nan nan nan nan nan nan nan nan nan nan nan nan nan nan nan nan nan nan nan nan nan nan nan nan nan nan nan nan nan nan nan nan nan nan nan nan nan nan nan nan nan nan nan nan nan nan nan nan nan nan nan nan nan nan
nan nan nan nan nan nan nan nan nan nan nan nan nan nan nan nan nan nan nan nan nan nan nan nan nan nan nan nan nan nan nan nan nan nan nan nan nan nan nan nan nan nan nan nan nan nan nan nan nan nan nan nan nan nan nan nan nan nan nan nan nan nan nan nan nan nan nan nan nan nan nan nan nan nan nan nan nan nan nan nan nan nan nan nan nan nan
nan nan nan nan nan nan nan nan nan nan nan nan nan nan nan nan nan nan nan nan nan nan nan nan nan nan nan nan nan nan nan nan nan nan nan nan nan nan nan nan nan nan nan nan nan nan nan nan nan nan nan nan nan nan nan nan nan nan nan nan nan nan nan nan nan nan nan nan nan nan nan nan nan nan nan nan nan nan nan nan nan nan nan nan nan nan
nan nan nan nan nan nan nan nan nan nan nan nan nan nan nan nan nan nan nan nan nan nan nan nan nan nan nan nan nan nan nan nan nan nan nan nan nan nan nan nan nan nan nan nan nan nan nan nan nan nan nan nan nan nan nan nan nan nan nan nan nan nan nan nan nan nan nan nan nan nan nan nan nan nan nan nan nan nan nan nan nan nan nan nan nan nan
nan nan nan nan nan nan nan nan nan nan nan nan nan nan nan nan nan nan nan nan nan nan nan nan nan nan nan nan nan nan nan nan nan nan nan nan nan nan nan nan nan nan nan nan nan nan nan nan nan nan nan nan nan nan nan nan nan nan nan nan nan nan nan nan nan nan nan nan nan nan nan nan nan nan nan nan nan nan nan nan nan nan nan nan nan nan
nan nan nan nan nan nan nan nan nan nan nan nan nan nan nan nan nan nan nan nan nan nan nan nan nan nan nan nan nan nan nan nan nan nan nan nan nan nan nan nan nan nan nan nan nan nan nan nan nan nan nan 1 nan nan nan nan nan nan nan nan nan nan nan nan nan nan nan nan nan nan nan nan nan nan nan nan nan nan nan nan nan nan nan nan nan nan
CIN
nan nan nan nan nan nan nan nan nan nan nan nan nan nan nan nan nan nan nan nan nan nan nan nan nan nan nan nan nan nan nan nan nan nan nan nan nan nan nan nan nan nan nan nan nan nan nan nan nan nan nan nan nan nan nan -0 -0 -0 -0 -0 -0 -0 -0 -0 -0 -0 -0 -0 -0 -0 -0 -0 -0 -0 -0 -0 -0 -0 -0 -0 -0 -0 -0 -0 -0 -0
nan nan nan nan nan nan nan nan nan nan nan nan nan nan nan nan nan nan nan nan nan nan nan nan nan nan nan nan nan nan nan nan nan nan nan nan nan nan nan nan nan nan nan nan nan nan nan nan nan nan nan nan nan nan nan -0 -0 -0 -0 -0 -0 -0 -0 -0 -0 -0 -0 -0 -0 -0 -0 -0 -0 -0 -0 -0 -0 -0 -0 -0 -0 -0 -0 -0 -0 -0
nan nan nan nan nan nan nan nan nan nan nan nan nan nan nan nan nan nan nan nan nan nan nan nan nan nan nan nan nan nan nan nan nan nan nan nan nan nan nan nan nan nan nan nan nan nan nan nan nan nan nan nan nan nan nan nan nan -0 -0 -0 -0 -0 -0 -0 -0 -0 -0 -0 -0 -0 -0 -0 -0 -0 -0 -0 -0 -0 -0 -0 -0 -0 -0 -0 -0 -0
nan nan nan nan nan nan nan nan nan nan nan nan nan nan nan nan nan nan nan nan nan nan nan nan nan nan nan nan nan nan nan nan nan nan nan nan nan nan nan nan nan nan nan nan nan nan nan nan nan nan nan nan nan nan nan nan nan nan -0 -0 -0 -0 -0 -0 -0 -0 -0 -0 -0 -0 -0 -0 -0 -0 -0 -0 -0 -0 -0 -0 -0 -0 -0 -0 -0 -0
nan nan nan nan nan nan nan nan nan nan nan nan nan nan nan nan nan nan nan nan nan nan nan nan nan nan nan nan nan nan nan nan nan nan nan nan nan nan nan nan nan nan nan nan nan nan nan nan nan nan nan nan nan nan nan nan nan nan -0 -0 -0 -0 -0 -0 -0 -0 -0 -0 -0 -0 -0 -0 -0 -0 -0 -0 -0 -0 -0 -0 -0 -0 -0 -0 -0 -0
nan nan nan nan nan nan nan nan nan nan nan nan nan nan nan nan nan nan nan nan nan nan nan nan nan nan nan nan nan nan nan nan nan nan nan nan nan nan nan nan nan nan nan nan nan nan nan nan nan nan nan nan nan nan nan nan nan nan -0 -0 -0 -0 -0 -0 -0 -0 -0 -0 -0 -0 -0 -0 -0 -0 -0 -0 -0 -0 -0 -0 -0 -0 -0 -0 -0 -0
nan nan nan nan nan nan nan nan nan nan nan nan nan nan nan nan nan nan nan nan nan nan nan nan nan nan nan nan nan nan nan nan nan nan nan nan nan nan nan nan nan nan nan nan nan nan nan nan nan nan nan nan nan nan nan nan nan nan -0 -0 -0 -0 -0 -0 -0 -0 -0 -0 -0 -0 -0 -0 -0 -0 -0 -0 -0 -0 -0 -0 -0 -0 -0 -0 -0 -0
nan nan nan nan nan nan nan nan nan nan nan nan nan nan nan nan nan nan nan nan nan nan nan nan nan nan nan nan nan nan nan nan nan nan nan nan nan nan nan nan nan nan nan nan nan nan nan nan nan nan nan nan nan nan nan nan nan -0 -0 -0 -0 -0 -0 -0 -0 -0 -0 -0 -0 -0 -0 -0 -0 -0 -0 -0 -0 -0 -0 -0 -0 -0 -0 -0 -0 -0
nan nan nan nan nan nan nan nan nan nan nan nan nan nan nan nan nan nan nan nan nan nan nan nan nan nan nan nan nan nan nan nan nan nan nan nan nan nan nan nan nan nan nan nan nan nan nan nan nan nan nan nan nan nan nan -0 -0 -0 -0 -0 -0 -0 -0 -0 -0 -0 -0 -0 -0 -0 -0 -0 -0 -0 -0 -0 -0 -0 -0 -0 -0 -0 -0 -0 -0 -0
nan nan nan nan nan nan nan nan nan nan nan nan nan nan nan nan nan nan nan nan nan nan nan nan nan nan nan nan nan nan nan nan nan nan nan nan nan nan nan nan nan nan nan nan nan nan nan nan nan nan nan nan nan nan -0 -0 -0 -0 -0 -0 -0 -0 -0 -0 -0 -0 -0 -0 -0 -0 -0 -0 -0 -0 -0 -0 -0 -0 -0 -0 -0 -0 -0 -0 -0 -0
nan nan nan nan nan nan nan nan nan nan nan nan nan nan nan nan nan nan nan nan nan nan nan nan nan nan nan nan nan nan nan nan nan nan nan nan nan nan nan nan nan nan nan nan nan nan nan nan nan nan nan nan nan nan -0 -0 -0 -0 -0 -0 -0 -0 -0 -0 -0 -0 -0 -0 -0 -0 -0 -0 -0 -0 -0 -0 -0 -0 -0 -0 -0 -0 -0 -0 -0 -0
nan nan nan nan nan nan nan nan nan nan nan nan nan nan nan nan nan nan nan nan nan nan nan nan nan nan nan nan nan nan nan nan nan nan nan nan nan nan nan nan nan nan nan nan nan nan nan nan nan nan nan nan -0 -0 -0 -0 -0 -0 -0 -0 -0 -0 -0 -0 -0 -0 -0 -0 -0 -0 -0 -0 -0 -0 -0 -0 -0 -0 -0 -0 -0 -0 -0 -0 -0 -0
nan nan nan nan nan nan nan nan nan nan nan nan nan nan nan nan nan nan nan nan nan nan nan nan nan nan nan nan nan nan nan nan nan nan nan nan nan nan nan nan nan nan nan nan nan nan nan nan nan nan nan nan -3 -3 -0 -0 -0 -0 -0 -0 -0 -0 -0 -0 -0 -0 -0 -0 -0 -0 -0 -0 -0 -0 -0 -0 -0 -0 -0 -0 -0 -0 -0 -0 -0 -0
nan nan nan nan nan nan nan nan nan nan nan nan nan nan nan nan nan nan nan nan nan nan nan nan nan nan nan nan nan nan nan nan nan nan nan nan nan nan nan nan nan nan nan nan nan nan nan nan nan nan nan nan -16 -16 -0 -0 -0 -0 -0 -0 -0 -0 -0 -0 -0 -0 -0 -0 -0 -0 -0 -0 -0 -0 -0 -0 -0 -0 -0 -0 -0 -0 -0 -0 -0 -0
nan nan nan nan nan nan nan nan nan nan nan nan nan nan nan nan nan nan nan nan nan nan nan nan nan nan nan nan nan nan nan nan nan nan nan nan nan nan nan nan nan nan nan nan nan nan nan nan nan nan nan nan -33 -33 -3 -0 -0 -0 -0 -0 -0 -0 -0 -0 -0 -0 -0 -0 -0 -0 -0 -0 -0 -0 -0 -0 -0 -0 -0 -0 -0 -0 -0 -0 -0 -0
nan nan nan nan nan nan nan nan nan nan nan nan nan nan nan nan nan nan nan nan nan nan nan nan nan nan nan nan nan nan nan nan nan nan nan nan nan nan nan nan nan nan nan nan nan nan nan nan nan nan nan nan -0 -0 -0 -0 -0 -0 -0 -0 -0 -0 -0 -0 -0 -0 -0 -0 -0 -0 -0 -0 -0 -0 -0 -0 -0 -0 -0 -0 -0 -0 -0 -0 -0 -0
nan nan nan nan nan nan nan nan nan nan nan nan nan nan nan nan nan nan nan nan nan nan nan nan nan nan nan nan nan nan nan nan nan nan nan nan nan nan nan nan nan nan nan nan nan nan nan nan nan nan nan -0 -0 -0 -0 -0 -0 -0 -0 -0 -0 -0 -0 -0 -0 -0 -0 -0 -0 -0 -0 -0 -0 -0 -0 -0 -0 -0 -0 -0 -0 -0 -0 -0 -0 -0
nan nan nan nan nan nan nan nan nan nan nan nan nan nan nan nan nan nan nan nan nan nan nan nan nan nan nan nan nan nan nan nan nan nan nan nan nan nan nan nan nan nan nan nan nan nan nan nan nan nan nan -0 -0 -0 -0 -0 -0 -0 -0 -0 -0 -0 -0 -0 -0 -0 -0 -0 -0 -0 -0 -0 -0 -0 -0 -0 -0 -0 -0 -0 -0 -0 -0 -0 -0 -0
nan nan nan nan nan nan nan nan nan nan nan nan nan nan nan nan nan nan nan nan nan nan nan nan nan nan nan nan nan nan nan nan nan nan nan nan nan nan nan nan nan nan nan nan nan nan nan nan nan nan -0 -0 -0 -0 -0 -0 -0 -0 -0 -0 -0 -0 -0 -0 -0 -0 -0 -0 -0 -0 -0 -0 -0 -0 -0 -0 -0 -0 -0 -0 -0 -0 -0 -0 -0 -0
nan nan nan nan nan nan nan nan nan nan nan nan nan nan nan nan nan nan nan nan nan nan nan nan nan nan nan nan nan nan nan nan nan nan nan nan nan nan nan nan nan nan nan nan nan nan nan nan nan nan -0 -0 -0 -0 -0 -0 -0 -0 -0 -0 -0 -0 -0 -0 -0 -0 -0 -0 -0 -0 -0 -0 -0 -0 -0 -0 -0 -0 -0 -0 -0 -0 -0 -0 -0 -0
nan nan nan nan nan nan nan nan nan nan nan nan nan nan nan nan nan nan nan nan nan nan nan nan nan nan nan nan nan nan nan nan nan nan nan nan nan nan nan nan nan nan nan nan nan nan nan nan nan nan -0 -0 -0 -0 -0 -0 -0 -0 -0 -0 -0 -0 -0 -0 -0 -0 -0 -0 -0 -0 -0 -0 -0 -0 -0 -0 -0 -0 -0 -0 -0 -0 -0 -0 -0 -0
nan nan nan nan nan nan nan nan nan nan nan nan nan nan nan nan nan nan nan nan nan nan nan nan nan nan nan nan nan nan nan nan nan nan nan nan nan nan nan nan nan nan nan nan nan nan nan nan nan nan nan -0 -0 -0 -0 -0 -0 -0 -0 -0 -0 -0 -0 -0 -0 -0 -0 -0 -0 -0 -0 -0 -0 -0 -0 -0 -0 -0 -0 -0 -0 -0 -0 -0 -0 -0
nan nan nan nan nan nan nan nan nan nan nan nan nan nan nan nan nan nan nan nan nan nan nan nan nan nan nan nan nan nan nan nan nan nan nan nan nan nan nan nan nan nan nan nan nan nan nan nan nan nan nan -0 -0 -0 -0 -0 -0 -0 -0 -0 -0 -0 -0 -0 -0 -0 -0 -0 -0 -0 -0 -0 -0 -0 -0 -0 -0 -0 -0 -0 -0 -0 -0 -0 -0 -0
nan nan nan nan nan nan nan nan nan nan nan nan nan nan nan nan nan nan nan nan nan nan nan nan nan nan nan nan nan nan nan nan nan nan nan nan nan nan nan nan nan nan nan nan nan nan nan nan nan nan nan -0 -0 -0 -0 -0 -0 -0 -0 -0 -0 -0 -0 -0 -0 -0 -0 -0 -0 -0 -0 -0 -0 -0 -0 -0 -0 -0 -0 -0 -0 -0 -0 -0 -0 -0
nan nan nan nan nan nan nan nan nan nan nan nan nan nan nan nan nan nan nan nan nan nan nan nan nan nan nan nan nan nan nan nan nan nan nan nan nan nan nan nan nan nan nan nan nan nan nan nan nan nan nan nan -0 -0 -0 -0 -0 -0 -0 -0 -0 -0 -0 -0 -0 -0 -0 -0 -0 -0 -0 -0 -0 -0 -0 -0 -0 -0 -0 -0 -0 -0 -0 -0 -0 -0
nan nan nan nan nan nan nan nan nan nan nan nan nan nan nan nan nan nan nan nan nan nan nan nan nan nan nan nan nan nan nan nan nan nan nan nan nan nan nan nan nan nan nan nan nan nan nan nan nan nan nan nan nan nan -0 -0 -0 -0 -0 -0 -0 -0 -0 -0 -0 -0 -0 -0 -0 -0 -0 -0 -0 -0 -0 -0 -0 -0 -0 -0 -0 -0 -0 -0 -0 -0
-0 -0 -0 -0 -0 -0 nan nan nan nan nan nan nan nan nan nan nan nan nan nan nan nan nan nan nan nan nan nan nan nan nan nan nan nan nan nan nan nan nan nan nan nan nan nan nan nan nan nan nan nan nan nan nan nan -0 -0 -0 -0 -0 -0 -0 -0 -0 -0 -0 -0 -0 -0 -0 -0 -0 -0 -0 -0 -0 -0 -0 -0 -0 -0 -0 -0 -0 -0 -0 -0
-0 -0 -0 -0 -0 -0 nan nan nan nan nan nan nan nan nan nan nan nan nan nan nan nan nan nan nan nan nan nan nan nan nan nan nan nan nan nan nan nan nan nan nan nan nan nan nan nan nan nan nan nan nan nan nan nan nan nan nan nan -0 -0 -0 -0 -0 -0 -0 -0 -0 -0 -0 -0 -0 -0 -0 -0 -0 -0 -0 -0 -0 -0 -0 -0 -0 -9 -9 nan
-0 -0 -0 -0 -0 -0 nan nan nan nan nan nan nan nan nan nan nan nan nan nan nan nan nan nan nan nan nan nan nan nan nan nan nan nan nan nan nan nan nan nan nan nan nan nan nan nan nan nan nan nan nan nan nan nan nan nan nan nan nan nan nan -0 -0 -0 -0 -0 -0 -0 -0 -0 -0 -0 -0 -0 -0 -0 -0 -0 -0 -0 -0 -0 -5 nan nan nan
-0 -0 -0 -0 -0 nan nan nan nan nan nan nan nan nan nan nan nan nan nan nan nan nan nan nan nan nan nan nan nan nan nan nan nan nan nan nan nan nan nan nan nan nan nan nan nan nan nan nan nan nan nan nan nan nan nan nan nan nan nan nan nan nan -0 -0 -0 -0 -0 -0 -0 -0 -0 -0 -0 -0 -0 -0 -0 -0 -0 -0 -0 -0 nan nan nan nan
nan nan nan nan nan nan nan nan nan nan nan nan nan nan nan nan nan nan nan nan nan nan nan nan nan nan nan nan nan nan nan nan nan nan nan nan nan nan nan nan nan nan nan nan nan nan nan nan nan nan nan nan nan nan nan nan nan nan nan nan nan nan -0 -0 -0 -0 -0 -0 -0 -0 -0 -0 -0 -0 -0 -0 -0 -0 -0 -0 -0 -5 nan nan nan nan
nan nan nan nan nan nan nan nan nan nan nan nan nan nan nan nan nan nan nan nan nan nan nan nan nan nan nan nan nan nan nan nan nan nan nan nan nan nan nan nan nan nan nan nan nan nan nan nan nan nan nan nan nan nan nan nan nan nan nan nan nan nan nan nan nan nan nan -0 -0 -0 -0 -0 -0 -0 -0 -0 -0 -0 -0 -0 -0 -0 nan nan nan nan
nan nan nan nan nan nan nan nan nan nan nan nan nan nan nan nan nan nan nan nan nan nan nan nan nan nan nan nan nan nan nan nan nan nan nan nan nan nan nan nan nan nan nan nan nan nan nan nan nan nan nan nan nan nan nan nan nan nan nan nan nan nan nan nan nan nan nan nan nan nan -0 -0 -0 -0 -0 -0 -0 -0 -0 -0 -0 -0 -0 nan nan nan
nan nan nan nan nan nan nan nan nan nan nan nan nan nan nan nan nan nan nan nan nan nan nan nan nan nan nan nan nan nan nan nan nan nan nan nan nan nan nan nan nan nan nan nan nan nan nan nan nan nan nan nan nan nan nan nan nan nan nan nan nan nan nan nan nan nan nan nan nan nan nan nan -1 -1 -0 -0 -0 -0 -0 -0 -0 -0 -0 -0 -0 nan
nan nan nan nan nan nan nan nan nan nan nan nan nan nan nan nan nan nan nan nan nan nan nan nan nan nan nan nan nan nan nan nan nan nan nan nan nan nan nan nan nan nan nan nan nan nan nan nan nan nan nan nan nan nan nan nan nan nan nan nan nan nan nan nan nan nan nan nan nan nan nan nan nan nan nan -0 -0 -0 -0 -0 -0 -0 -0 -0 -0 -13
nan nan nan nan nan nan nan nan nan nan nan nan nan nan nan nan nan nan nan nan nan nan nan nan nan nan nan nan nan nan nan nan nan nan nan nan nan nan nan nan nan nan nan nan nan nan nan nan nan nan nan nan nan nan nan nan nan nan nan nan nan nan nan nan nan nan nan nan nan nan nan nan nan nan nan -0 -0 -0 -0 -0 -0 -0 -0 -0 -0 -0
nan nan nan nan nan nan nan nan nan nan nan nan nan nan nan nan nan nan nan nan nan nan nan nan nan nan nan nan nan nan nan nan nan nan nan nan nan nan nan nan nan nan nan nan nan nan nan nan nan nan nan nan nan nan nan nan nan nan nan nan nan nan nan nan nan nan nan nan nan nan nan nan nan nan nan -5 nan nan -5 -0 -0 -0 -0 -0 -0 -0
nan nan nan nan nan nan nan nan nan nan nan nan nan nan nan nan nan nan nan nan nan nan nan nan nan nan nan nan nan nan nan nan nan nan nan nan nan nan nan nan nan nan nan nan nan nan nan nan nan nan nan nan nan nan nan nan nan nan nan nan nan nan nan nan nan nan nan nan nan nan nan nan nan nan nan nan nan nan nan nan nan -0 nan nan nan nan
nan nan nan nan nan nan nan nan nan nan nan nan nan nan nan nan nan nan nan nan nan nan nan nan nan nan nan nan nan nan nan nan nan nan nan nan nan nan nan nan nan nan nan nan nan nan nan nan nan nan nan nan nan nan nan nan nan nan nan nan nan nan nan nan nan nan nan nan nan nan nan nan nan nan nan nan nan nan nan nan nan nan nan nan nan nan
nan nan nan nan nan nan nan nan nan nan nan nan nan nan nan nan nan nan nan nan nan nan nan nan nan nan nan nan nan nan nan nan nan nan nan nan nan nan nan nan nan nan nan nan nan nan nan nan nan nan nan nan nan nan nan nan nan nan nan nan nan nan nan nan nan nan nan nan nan nan nan nan nan nan nan nan nan nan nan nan nan nan nan nan nan nan
nan nan nan nan nan nan nan nan nan nan nan nan nan nan nan nan nan nan nan nan nan nan nan nan nan nan nan nan nan nan nan nan nan nan nan nan nan nan nan nan nan nan nan nan nan nan nan nan nan nan nan nan nan nan nan nan nan nan nan nan nan nan nan nan nan nan nan nan nan nan nan nan nan nan nan nan nan nan nan nan nan nan nan nan nan nan
-0 nan nan nan nan nan nan nan nan nan nan nan nan nan nan nan nan nan nan nan nan nan nan nan nan nan nan nan nan nan nan nan nan nan nan nan nan nan nan nan nan nan nan nan nan nan nan nan nan nan nan nan nan nan nan nan nan nan nan nan nan nan nan nan nan nan nan nan nan nan nan nan nan nan nan nan nan nan nan nan nan nan nan nan nan nan
nan nan nan nan nan nan nan nan nan nan nan nan nan nan nan nan nan nan nan nan nan nan nan nan nan nan nan nan nan nan nan nan nan nan nan nan nan nan nan nan nan nan nan nan nan nan nan nan nan nan nan nan nan nan nan nan nan nan nan nan nan nan nan nan nan nan nan nan nan nan nan nan nan nan nan nan nan nan nan nan nan -4 nan nan nan nan
nan nan nan nan nan nan nan nan nan nan nan nan nan nan nan nan nan nan nan nan nan nan nan nan nan nan nan nan nan nan nan nan nan nan nan nan nan nan nan nan nan nan nan nan nan nan nan nan nan nan nan nan nan nan nan nan nan nan nan nan nan nan nan nan nan nan nan nan nan nan nan nan nan nan nan nan nan nan nan nan nan nan nan nan nan nan
nan nan nan nan nan nan nan nan nan nan nan nan nan nan nan nan nan nan nan nan nan nan nan nan nan nan nan nan nan nan nan nan nan nan nan nan -0 -0 nan nan nan nan nan nan nan nan nan nan nan nan nan nan nan nan nan nan nan nan nan nan nan nan nan nan nan nan nan nan nan nan nan nan nan nan nan nan nan nan nan nan nan nan nan nan nan nan
nan nan nan nan nan nan nan nan nan nan nan nan nan nan nan nan nan nan nan nan nan nan nan nan nan nan nan nan nan nan nan nan nan nan nan nan nan nan nan nan nan nan nan nan nan nan nan nan nan nan nan nan nan nan nan nan nan nan nan nan nan nan nan nan nan nan nan nan nan nan nan nan nan nan nan nan nan nan nan nan nan nan nan nan nan nan
nan nan nan nan nan nan nan nan nan nan nan nan nan nan nan nan nan nan nan nan nan nan nan nan nan nan nan nan nan nan nan nan nan nan nan nan nan nan nan nan nan nan nan nan nan nan nan nan nan nan nan nan nan nan nan nan nan nan nan nan nan nan nan nan nan nan nan nan nan nan nan nan nan nan nan nan nan nan nan nan nan nan nan nan nan nan
nan nan nan nan nan nan nan nan nan nan nan nan nan nan nan nan nan nan nan nan nan nan nan nan nan nan nan nan nan nan nan nan nan nan nan nan nan nan nan nan nan nan nan nan nan nan nan nan nan nan nan nan nan nan nan nan nan nan nan nan nan nan nan nan nan nan nan nan nan nan nan nan nan nan nan nan nan nan nan nan nan nan nan nan nan nan
nan nan nan nan nan nan nan nan nan nan nan nan nan nan nan nan nan nan nan nan nan nan nan nan nan nan nan nan nan nan nan nan nan nan nan nan nan nan nan nan nan nan nan nan nan nan nan nan nan nan nan nan nan nan nan nan nan nan nan nan nan nan nan nan nan nan nan nan nan nan nan nan nan nan nan nan nan nan nan nan nan nan nan nan nan nan
nan nan nan nan nan nan nan nan nan nan nan nan nan nan nan nan nan nan nan nan nan nan nan nan nan nan nan nan nan nan nan nan nan nan nan nan nan nan nan nan nan nan nan nan nan nan nan nan nan nan nan nan nan nan nan nan nan nan nan nan nan nan nan nan nan nan nan nan nan nan nan nan nan nan nan nan nan nan nan nan nan nan nan nan nan nan
nan nan nan nan nan nan nan nan nan nan nan nan nan nan nan nan nan nan nan nan nan nan nan nan nan nan nan nan nan nan nan nan nan nan nan nan nan nan nan nan nan nan nan nan nan nan nan nan nan nan nan -0 nan nan nan nan nan nan nan nan nan nan nan nan nan nan nan nan nan nan nan nan nan nan nan nan nan nan nan nan nan nan nan nan nan nan
Wind_Speed
1 1 1 3 3 3 2 3 4 6 5 5 4 4 4 5 5 5 6 6 6 5 4 4 4 4 3 3 2 2 1 0 1 1 2 2 3 3 4 4 4 5 5 5 6 6 6 7 7 8 9 9 9 9 10 10 10 10 11 11 12 12 13 13 14 15 15 16 17 17 18 19 19 19 19 19 19 19 19 20 20 20 21 21 22 22
1 1 1 3 3 3 2 2 3 5 6 6 5 5 5 5 4 4 4 5 5 4 4 4 4 4 3 2 2 2 1 1 1 2 2 2 3 3 4 4 4 5 5 6 6 6 6 7 8 8 9 9 9 9 9 9 10 10 10 11 11 12 12 13 14 15 16 16 17 18 18 19 19 19 19 19 19 19 19 19 20 20 21 21 21 22
1 1 1 2 3 3 2 2 2 3 6 6 6 6 6 6 5 4 3 3 3 3 3 3 3 3 3 2 1 2 2 2 2 2 2 3 3 4 4 4 5 5 6 6 6 6 7 7 8 9 9 9 9 9 9 9 9 10 10 10 11 12 12 13 14 15 16 17 17 18 18 19 19 19 19 19 19 19 19 19 20 20 21 21 21 22
2 2 1 1 2 2 2 2 2 3 4 5 5 6 6 5 4 3 3 3 3 3 3 3 3 3 2 1 1 2 3 3 2 3 3 4 4 5 5 5 6 6 6 6 7 7 8 8 9 9 9 9 10 9 9 9 9 10 10 10 11 11 12 13 14 15 16 17 17 18 18 18 19 19 19 19 19 19 19 20 20 21 21 21 21 22
1 2 1 1 1 1 1 2 2 3 4 5 5 5 5 4 3 3 3 3 3 3 3 3 3 3 2 1 2 2 3 3 4 4 5 5 6 6 6 6 7 7 7 7 7 8 8 9 9 10 10 10 10 10 10 10 10 10 10 10 11 11 12 13 14 15 16 16 17 18 18 18 18 18 19 19 19 19 19 20 20 21 21 21 22 22
1 1 1 1 1 1 1 2 2 3 4 4 4 3 3 3 3 3 3 3 3 3 2 2 2 2 2 2 2 3 4 5 5 6 6 7 7 7 7 7 7 8 8 8 8 9 9 10 10 10 10 10 10 10 10 10 10 10 10 10 11 11 12 13 14 15 16 16 17 17 18 18 18 18 18 18 19 19 19 20 20 21 21 21 22 22
1 1 1 1 1 2 2 1 2 3 3 3 3 3 2 2 2 3 2 2 2 2 2 2 2 2 2 3 3 4 5 6 7 7 8 8 8 8 8 8 9 9 9 9 9 9 10 10 10 10 11 11 11 10 10 10 10 10 10 10 11 11 12 13 14 15 16 16 17 17 18 18 18 18 18 18 19 19 19 20 20 21 21 21 21 22
2 1 1 2 2 2 2 1 1 2 3 3 3 3 2 2 2 2 2 2 2 2 2 2 2 2 3 3 4 4 4 5 6 6 7 7 8 9 9 9 10 10 10 10 10 10 10 10 11 11 11 11 11 11 10 10 10 10 10 10 11 11 12 13 14 15 16 16 17 17 17 18 18 18 18 18 18 19 19 19 20 20 21 21 21 21
4 2 1 2 2 2 2 1 0 1 1 2 3 3 3 2 2 2 2 2 2 1 1 2 2 2 2 3 3 3 3 4 4 4 5 5 5 7 8 9 10 10 11 11 11 11 11 11 11 11 11 11 11 11 10 10 10 10 10 10 11 12 12 13 14 15 16 16 17 17 17 17 17 18 18 18 18 19 19 19 19 20 20 21 21 22
4 3 2 1 2 2 2 2 1 0 1 1 2 2 2 3 3 3 2 1 1 1 1 2 2 2 2 2 2 2 3 5 6 7 8 7 8 8 9 9 10 11 13 13 12 12 12 11 11 11 11 11 11 10 10 10 10 10 10 11 11 12 13 14 14 15 16 16 17 17 17 17 17 17 18 18 18 18 19 19 19 20 20 21 21 22
3 3 2 2 2 2 2 2 2 1 2 2 2 2 1 2 3 4 4 3 2 1 1 2 2 2 1 1 2 2 3 4 5 6 8 9 10 10 10 11 11 12 14 13 13 13 13 12 12 11 11 10 10 10 10 10 10 10 10 11 11 12 13 14 14 15 16 16 16 17 17 17 17 17 17 18 18 18 19 19 19 20 20 21 21 22
3 2 2 2 2 2 2 2 2 2 2 2 2 1 0 1 2 3 4 4 3 2 2 2 2 2 1 1 1 1 2 2 3 3 4 6 7 7 7 8 10 11 12 12 12 12 13 12 12 11 10 10 10 10 9 9 10 10 11 11 12 12 13 14 14 15 15 16 16 16 17 17 17 17 17 18 18 18 19 19 19 20 20 21 21 22
3 3 3 2 3 3 3 3 2 2 2 3 3 4 4 2 2 2 3 4 4 3 2 2 2 2 2 2 1 1 1 2 2 2 3 3 4 4 4 5 5 6 7 7 7 8 10 11 10 10 10 9 9 9 10 10 10 11 11 11 12 12 13 13 14 15 15 15 16 16 16 17 17 17 17 18 18 18 19 19 19 20 20 21 21 22
3 3 3 3 3 3 3 4 4 4 4 4 4 4 3 3 3 3 3 3 3 3 3 3 2 2 2 2 2 1 1 1 2 2 3 3 3 3 3 4 4 4 4 4 4 5 7 7 7 7 9 8 8 8 9 10 11 11 11 11 12 12 13 13 14 14 15 15 15 16 16 17 17 17 17 18 18 18 19 19 19 20 20 21 21 22
5 4 4 4 4 4 4 5 5 5 5 4 2 2 3 3 3 3 4 4 3 3 3 4 3 2 2 2 2 1 1 2 2 3 3 3 3 3 3 3 4 4 4 4 4 4 6 5 5 5 6 6 5 7 9 10 10 11 11 12 12 13 13 13 14 14 14 15 15 16 16 16 17 17 17 18 18 18 19 19 19 20 20 21 21 21
5 5 6 6 5 5 4 5 5 4 4 3 3 3 4 4 4 4 4 5 4 3 3 4 3 2 1 1 2 2 1 2 2 3 3 3 3 4 3 3 4 4 4 4 4 4 5 4 4 5 5 5 7 9 11 10 11 11 12 12 12 13 13 13 14 14 14 15 15 15 16 16 17 17 17 18 18 18 19 19 19 19 20 21 21 21
5 5 6 6 6 5 4 4 4 4 3 3 3 3 5 5 5 5 5 5 4 3 3 3 3 2 1 1 2 2 1 2 2 3 3 3 3 3 3 3 3 4 4 4 3 4 4 4 4 4 3 6 10 11 11 11 12 12 12 12 13 13 13 13 14 14 14 15 15 15 16 16 16 17 17 17 18 18 18 18 19 19 20 21 21 21
5 5 6 6 6 5 5 4 4 3 4 4 4 3 3 3 4 4 4 4 3 3 2 2 2 2 2 1 1 1 1 1 2 3 3 3 3 3 3 3 3 3 3 4 4 4 4 4 4 4 4 9 12 12 12 12 12 12 13 13 13 13 13 13 14 14 14 15 15 15 16 16 16 16 17 17 18 18 18 18 19 19 20 21 21 21
6 6 6 6 5 5 5 5 5 5 5 5 5 5 4 4 4 4 3 3 3 3 2 2 2 2 2 2 1 2 1 1 2 3 3 3 3 3 3 3 3 4 3 4 4 4 4 4 5 7 10 12 12 12 12 12 12 13 13 13 13 13 13 13 13 14 14 14 15 15 15 16 16 16 17 17 18 18 18 18 18 19 20 20 21 20
7 6 6 6 5 5 5 6 6 6 6 6 6 6 6 5 5 4 3 2 2 2 2 2 2 2 2 2 1 1 1 0 2 3 3 3 2 3 3 2 3 3 4 3 3 3 4 4 5 7 10 11 12 12 12 13 13 13 13 13 13 13 13 13 13 14 14 14 15 15 15 16 16 16 17 17 18 18 18 18 18 19 20 20 20 20
7 7 6 6 6 6 6 6 6 7 7 7 7 6 6 5 5 4 3 3 2 2 2 2 2 2 2 2 1 1 2 0 2 3 2 2 2 2 3 2 2 3 3 3 3 3 4 4 4 5 8 11 12 13 13 13 13 13 13 13 13 13 13 13 13 14 14 14 14 15 15 16 16 16 17 17 18 18 17 17 18 19 19 20 20 20
6 6 5 5 5 5 5 5 6 8 8 9 8 7 6 6 6 5 4 3 3 3 3 3 3 3 3 3 2 1 2 1 2 2 2 2 1 2 3 2 1 2 3 3 3 3 4 4 4 5 8 11 13 13 13 13 13 13 13 13 13 13 13 13 13 13 14 14 14 15 15 16 16 16 17 17 18 18 17 17 18 18 19 20 20 20
4 4 4 4 4 4 5 6 7 7 8 7 6 6 5 5 6 6 5 4 4 5 5 5 4 4 4 3 2 2 3 3 2 2 2 2 1 1 2 2 1 2 2 2 2 3 3 4 4 5 8 12 13 13 13 13 13 13 13 13 13 13 13 13 13 13 14 14 14 15 15 15 16 16 17 17 17 18 17 17 17 18 19 19 20 20
4 4 5 4 4 5 5 6 6 6 5 4 4 4 4 4 4 4 4 5 6 6 6 6 5 4 3 3 3 3 4 4 3 2 2 2 1 0 2 2 1 2 2 1 2 2 3 3 3 4 5 10 13 13 13 13 13 13 13 13 13 13 13 13 13 14 14 14 14 15 15 15 16 16 16 17 17 17 17 17 17 18 18 19 19 19
5 5 5 5 6 7 7 7 7 7 6 5 5 5 6 7 7 7 6 6 6 6 6 6 5 4 2 3 3 3 3 3 3 2 2 2 1 1 1 1 1 1 1 1 1 1 2 3 3 4 4 7 10 13 13 13 13 13 13 13 13 13 13 14 14 14 14 14 15 15 15 15 15 16 16 17 17 17 17 17 17 17 18 18 18 18
8 9 9 10 12 13 13 13 12 12 10 8 7 6 7 8 8 7 7 6 5 6 6 5 4 3 2 2 2 2 2 3 3 2 2 2 2 1 1 1 1 1 0 1 1 1 2 3 3 4 4 5 8 11 13 13 14 14 13 13 13 13 13 14 14 14 15 15 15 15 15 15 15 15 16 16 17 17 17 17 17 17 17 17 17 17
16 17 17 18 18 18 18 17 17 16 15 13 11 9 8 8 8 8 6 5 5 5 5 5 4 3 2 2 1 1 2 2 2 2 1 2 2 1 1 1 0 1 0 1 1 1 2 2 3 3 4 3 5 7 12 13 14 14 14 13 13 13 14 14 14 15 15 15 15 15 15 15 15 15 15 16 16 17 17 16 16 16 15 14 13 13
20 20 20 20 20 19 19 18 18 17 16 16 14 12 9 7 7 8 7 6 5 5 5 5 5 4 2 2 1 0 1 1 1 1 1 2 2 1 1 1 0 1 1 0 1 2 2 2 2 2 3 3 4 5 9 11 12 13 13 13 13 13 14 14 14 15 15 15 15 15 15 15 15 15 15 16 16 16 17 16 15 14 12 10 8 6
20 21 21 20 20 20 19 18 17 17 16 15 13 10 6 4 5 7 7 6 5 5 4 4 4 4 3 3 2 0 1 1 1 1 1 2 2 1 1 1 0 0 1 1 1 2 3 2 2 2 3 4 4 4 5 8 9 10 11 12 13 13 13 14 14 15 15 15 15 15 15 15 15 15 15 15 16 16 17 16 14 12 8 7 6 5
15 16 16 17 17 16 15 13 13 14 15 14 12 9 6 3 3 4 5 5 5 5 5 5 5 5 4 4 2 0 1 1 1 1 2 2 1 1 1 0 0 0 1 1 1 2 2 3 2 2 2 4 4 4 4 5 5 6 6 8 10 10 12 13 14 14 14 15 15 15 15 15 15 15 15 15 16 16 16 16 13 9 5 5 5 5
10 10 10 11 11 10 10 9 10 10 12 12 10 8 6 4 3 3 3 3 4 5 5 5 5 5 5 4 2 1 1 1 1 2 2 2 2 1 1 0 0 0 1 2 2 1 0 2 3 3 3 3 3 3 4 4 4 4 4 5 6 7 10 12 12 13 13 13 14 14 15 15 15 15 15 15 16 16 16 16 13 9 5 4 5 5
8 8 8 8 7 7 7 7 7 7 7 7 7 6 5 5 4 3 2 2 2 4 5 6 5 4 3 3 2 2 1 1 1 2 3 2 2 1 1 1 1 0 0 1 2 2 2 0 2 3 3 3 3 3 4 4 4 3 4 4 4 5 9 10 10 10 10 11 12 13 14 14 14 15 15 15 16 16 16 16 14 10 6 5 5 5
8 7 7 7 7 7 6 6 6 5 5 5 4 4 4 4 4 4 2 2 2 3 5 6 5 4 3 3 2 2 1 1 2 2 4 3 2 1 1 1 1 0 0 1 1 2 2 1 1 2 3 2 2 3 3 4 4 3 3 3 3 4 6 7 7 7 7 8 9 10 11 13 13 14 14 15 15 16 16 16 15 13 9 5 5 5
8 8 7 7 7 6 6 6 5 5 4 4 4 4 3 4 4 4 4 3 3 3 3 4 5 5 4 3 3 2 1 1 2 3 4 4 3 2 2 1 1 1 1 1 1 2 2 1 0 1 2 2 3 3 3 3 4 3 2 2 2 3 4 4 5 5 5 5 5 5 7 8 10 12 12 14 14 15 15 16 15 14 13 8 6 5
8 8 7 7 7 6 6 5 5 5 4 4 4 4 4 4 4 4 4 4 4 4 3 3 3 3 4 4 4 3 2 2 2 3 4 3 3 2 2 1 1 1 2 2 2 2 2 1 0 0 1 2 2 3 3 3 3 3 3 2 2 2 2 3 3 4 4 4 4 4 4 5 6 7 9 11 13 14 15 15 15 15 15 12 10 7
7 7 7 7 6 6 6 5 5 5 4 4 3 3 3 4 4 4 4 4 5 5 5 4 3 2 2 3 4 5 4 3 3 3 4 3 3 3 2 1 2 2 2 2 2 2 2 1 1 1 1 1 2 3 3 3 3 4 4 3 3 3 3 3 3 3 3 4 4 4 4 4 5 5 6 10 13 14 14 14 15 15 15 14 13 11
7 7 7 6 6 6 5 5 4 4 4 4 3 3 4 4 4 4 4 5 5 5 6 5 5 5 5 4 4 5 5 3 3 3 4 3 3 3 3 2 2 2 2 3 3 3 3 2 2 2 2 1 1 2 3 3 4 4 4 4 3 3 3 3 3 3 3 4 4 4 4 4 5 5 6 10 11 12 12 13 13 14 15 15 14 14
7 7 6 6 5 5 5 5 4 4 4 4 4 4 4 5 5 5 5 5 6 6 6 5 6 7 9 8 7 6 5 5 4 4 4 3 3 3 3 2 1 1 1 2 3 3 3 3 2 2 1 1 2 2 2 3 3 4 4 4 3 2 3 3 3 3 3 4 4 5 5 5 5 4 5 6 6 6 7 7 9 11 13 13 13 14
7 7 6 6 5 5 5 5 4 4 4 4 4 5 5 5 6 6 6 6 6 6 6 6 6 6 7 8 8 7 7 5 5 5 4 4 3 3 4 3 2 1 1 1 2 3 3 3 3 2 1 1 2 2 2 2 2 3 4 4 3 3 3 3 3 3 3 3 4 5 5 5 4 4 4 4 4 4 5 5 6 7 8 7 9 11
7 7 6 6 6 5 5 5 5 5 5 5 6 6 6 6 6 6 6 6 6 6 6 6 6 5 5 6 6 6 5 4 4 4 3 3 2 2 3 3 3 2 1 1 2 3 3 3 3 2 2 1 1 2 2 2 2 2 3 3 3 3 4 3 3 3 3 3 3 4 4 4 4 4 4 4 4 4 4 4 4 5 5 4 4 6
7 7 6 6 6 5 5 5 5 5 5 5 5 5 6 6 6 6 5 6 5 5 5 5 5 5 5 5 4 4 4 3 3 2 2 2 3 3 3 3 3 3 2 2 2 2 3 4 3 2 2 1 1 1 2 2 3 3 4 3 2 3 4 4 4 3 3 3 3 3 4 4 4 5 4 4 4 4 4 4 4 4 4 3 2 3
8 7 6 6 6 5 5 5 6 6 5 5 5 5 5 5 6 6 6 5 5 4 3 3 4 4 4 4 3 4 3 3 3 2 2 3 3 3 3 3 3 3 3 3 3 2 2 3 3 3 2 2 1 0 1 2 3 3 3 2 3 4 4 4 4 3 3 3 3 3 5 4 4 4 4 4 4 4 4 4 5 6 5 4 3 2
7 6 6 6 6 6 7 7 7 6 5 5 5 4 4 4 5 6 7 6 5 5 3 3 4 4 5 3 2 2 3 3 3 2 1 1 2 3 3 3 3 3 3 3 2 2 1 2 2 2 3 3 2 1 1 3 3 3 2 3 3 3 2 3 3 3 3 3 3 3 3 3 3 3 3 3 3 3 4 4 5 6 6 4 3 3
7 6 6 6 6 6 7 6 6 5 5 5 5 5 4 4 5 6 6 5 5 5 3 3 3 4 5 4 3 1 2 3 3 2 1 1 2 2 3 3 3 3 3 3 3 2 2 1 1 1 1 2 2 1 1 2 3 3 3 3 2 2 2 2 3 3 3 3 3 3 3 3 3 3 3 3 3 3 4 4 4 4 4 4 4 4
7 7 7 7 6 6 6 6 5 5 5 5 5 5 4 4 4 4 4 5 5 5 4 3 4 4 4 3 3 2 1 2 3 3 2 1 2 3 3 3 3 3 3 3 3 3 3 2 1 0 0 1 1 0 1 2 2 3 3 3 3 2 2 3 3 2 2 3 3 3 3 3 2 3 3 3 3 3 3 4 4 4 4 4 4 4
7 7 7 6 6 6 7 6 6 5 5 5 5 4 4 3 3 4 5 5 5 4 3 2 3 4 4 4 3 2 2 1 1 2 2 2 1 1 2 3 3 3 3 2 3 3 3 3 3 2 2 2 1 1 2 2 2 2 3 3 3 2 2 3 2 2 2 2 3 3 3 2 3 3 3 4 4 3 3 4 4 4 4 4 4 4
7 7 7 6 6 6 6 6 6 6 6 6 5 4 3 3 3 4 4 4 4 4 3 3 3 4 4 4 3 3 3 2 1 1 1 2 1 0 1 1 2 2 2 2 2 2 2 3 4 3 3 2 1 1 2 2 2 2 2 2 2 2 2 3 2 2 2 2 2 3 3 3 3 3 3 3 3 3 3 3 4 4 4 4 4 5
8 7 7 6 6 6 6 6 6 6 6 6 5 4 4 4 5 5 4 4 4 4 4 4 4 4 3 3 2 3 4 3 2 1 0 0 1 1 1 1 1 1 1 1 2 2 2 2 3 3 3 2 1 1 2 2 1 2 2 2 2 2 2 2 3 3 2 2 2 2 2 2 2 2 2 3 3 4 4 4 4 3 3 4 4 4
7 7 7 7 6 6 6 6 6 6 7 7 6 5 4 5 6 7 4 4 4 4 4 5 5 4 4 3 3 3 3 3 2 1 1 0 0 1 1 1 2 2 2 3 3 3 3 1 1 3 4 3 3 2 2 2 2 1 1 1 1 1 2 2 2 3 3 3 3 2 1 1 1 1 1 2 3 4 4 4 4 4 4 4 4 4
7 7 7 7 7 7 6 6 7 7 7 8 7 6 5 4 4 4 3 3 3 4 4 4 5 5 5 4 3 3 3 2 2 1 0 0 0 1 1 1 2 2 2 3 3 3 3 2 1 2 5 6 5 3 2 2 2 2 1 1 1 1 1 1 2 2 2 3 3 3 2 1 1 1 2 2 2 3 4 4 4 4 4 4 4 4
7 7 6 6 6 6 6 6 7 7 7 8 7 7 6 5 4 3 3 3 4 4 3 3 4 4 5 4 4 3 3 2 2 1 0 0 0 1 1 1 2 2 2 2 2 2 2 2 2 1 3 7 8 7 3 2 1 1 1 1 1 1 1 1 2 2 2 2 2 2 2 2 2 2 2 2 2 3 4 4 4 5 5 4 4 4
Wind_Direction
81 75 27 48 70 85 68 92 111 117 116 111 110 109 106 102 97 96 102 105 107 107 106 102 95 90 90 100 112 125 142 116 43 27 25 33 37 36 32 20 9 359 353 351 350 352 355 1 5 7 9 9 9 8 8 8 8 8 7 6 4 1 359 357 355 354 352 351 350 349 348 346 344 342 340 339 337 335 333 330 328 326 324 323 323 322
67 68 43 46 66 84 80 71 102 121 128 128 127 125 118 112 107 103 101 105 107 108 109 104 95 86 77 75 92 112 110 72 50 40 41 48 48 43 35 22 11 4 0 359 360 3 7 11 14 14 14 13 12 12 11 11 11 10 9 8 5 3 1 359 358 356 355 353 351 349 348 346 344 342 340 338 337 335 333 331 329 327 326 326 325 325
93 85 67 50 63 78 93 74 86 113 128 132 134 132 126 122 120 118 115 109 102 96 95 95 93 89 82 68 77 93 85 69 59 56 62 63 59 51 38 27 18 13 11 10 12 15 18 21 21 21 19 18 16 15 15 14 13 12 11 8 6 4 2 1 0 359 356 354 352 350 348 346 344 342 341 339 338 336 334 333 331 330 330 329 329 329
106 110 112 76 63 67 85 94 100 107 116 122 126 126 124 124 124 123 119 111 99 88 79 84 91 96 93 71 67 76 81 78 77 77 79 72 62 52 41 33 27 24 21 22 24 26 29 29 28 26 24 21 20 19 17 16 15 13 11 8 6 4 4 3 2 360 358 355 352 350 348 346 344 343 342 341 339 338 337 336 335 334 333 333 333 332
95 106 123 103 83 68 60 89 107 114 112 113 115 116 115 118 119 115 106 100 95 90 82 83 89 96 100 86 74 76 83 86 87 84 80 70 61 52 44 38 34 32 31 32 34 35 36 34 32 30 27 25 23 21 19 17 15 12 9 7 6 5 5 4 2 360 358 355 353 351 349 347 346 344 343 342 342 341 340 339 338 337 337 336 336 335
95 74 90 95 96 94 81 98 115 119 113 110 108 105 102 104 105 104 99 98 97 96 92 84 80 78 78 69 74 79 84 86 85 80 73 65 57 51 46 43 41 39 39 39 40 40 39 37 35 32 29 26 24 21 18 16 13 10 8 6 6 6 5 4 2 360 357 355 353 351 350 348 346 345 344 344 344 343 343 342 341 340 339 338 337 336
96 33 51 73 83 89 86 105 128 134 127 122 115 104 89 84 83 86 90 97 101 104 102 87 69 55 45 44 58 70 78 80 78 73 66 59 55 51 48 47 46 45 44 44 44 43 41 39 36 33 30 27 23 20 17 14 11 8 6 6 6 7 6 4 2 360 357 356 354 352 350 349 347 346 346 346 346 346 345 344 343 341 340 339 337 336
125 79 61 81 85 82 74 83 123 147 142 139 135 128 110 88 76 72 73 76 84 96 107 89 68 50 39 35 44 59 75 78 75 69 63 57 54 51 50 49 48 48 47 47 45 44 42 40 37 33 30 26 22 19 15 12 9 7 6 7 8 8 7 5 2 360 357 356 354 353 351 349 348 347 347 348 348 347 346 345 344 342 340 338 337 335
137 128 108 111 112 109 101 98 127 173 151 144 144 144 140 131 112 89 74 65 60 66 90 89 77 59 40 30 34 53 85 89 85 76 67 60 55 52 52 51 50 49 49 47 46 44 42 39 36 33 29 25 21 17 14 11 10 9 9 10 10 10 8 5 3 0 358 357 355 353 351 349 349 349 349 350 349 348 347 346 344 342 340 338 337 336
128 124 116 113 116 120 125 131 138 138 96 113 120 130 139 141 139 131 118 94 60 44 60 81 87 83 58 33 29 45 75 78 75 70 64 57 57 59 55 53 50 49 48 47 45 43 41 39 36 32 28 23 19 16 14 13 13 13 14 14 12 11 9 6 4 1 359 357 355 353 351 350 350 351 351 351 350 349 348 346 344 342 340 339 338 338
116 106 98 93 86 85 97 111 115 110 98 89 76 63 74 130 142 146 149 145 126 78 57 64 76 88 89 61 44 47 60 62 59 55 53 49 51 53 52 50 49 48 46 44 42 40 39 36 33 30 25 20 18 17 17 17 18 19 19 17 15 13 11 8 5 3 0 358 356 354 352 352 352 352 353 352 351 350 349 347 345 343 341 341 341 343
129 115 98 103 103 96 86 84 86 93 107 110 113 119 178 156 143 144 151 153 147 132 103 70 57 57 70 79 75 67 65 68 60 50 42 40 39 41 45 46 46 45 44 41 38 36 34 31 27 23 17 14 14 17 23 24 24 23 22 20 17 15 12 9 7 4 1 359 356 354 353 353 354 354 354 353 352 351 350 348 346 344 343 344 345 347
127 117 109 114 123 130 128 122 121 130 157 171 176 178 180 169 144 124 129 139 141 135 122 101 74 50 39 47 63 84 93 85 75 61 48 35 28 27 37 45 45 43 41 38 32 27 26 22 16 9 2 1 7 17 28 29 28 26 24 21 19 16 14 11 8 5 2 359 357 356 355 355 355 355 355 354 353 352 350 348 347 346 346 348 349 349
127 119 118 131 147 159 162 158 163 173 188 193 190 177 156 142 128 115 108 118 121 118 110 108 98 75 36 20 16 42 123 103 82 64 52 39 25 19 33 49 49 45 43 38 28 17 12 10 2 353 346 345 357 17 32 31 30 27 24 22 19 17 15 12 9 6 3 360 358 357 357 357 357 357 356 355 354 353 350 349 348 348 349 350 351 350
146 144 150 164 173 180 181 179 181 185 188 184 168 136 112 120 125 126 123 129 129 122 112 110 104 90 46 2 343 339 95 99 87 74 63 44 25 17 30 52 52 47 41 37 23 8 0 357 346 332 325 331 359 30 39 33 29 25 24 22 20 18 16 13 10 6 3 1 360 359 359 359 358 358 357 356 355 353 350 349 350 351 352 352 352 350
157 159 168 176 182 186 188 187 187 185 177 158 140 132 133 141 144 143 139 142 142 140 135 129 120 106 57 339 325 331 38 88 93 86 76 53 28 16 25 51 53 47 38 33 18 1 350 345 336 325 314 360 29 39 40 34 28 25 23 22 21 19 17 13 10 7 4 2 1 1 1 360 359 358 357 356 355 352 350 351 352 354 355 354 352 350
163 169 176 179 184 187 186 186 182 172 154 148 147 149 151 152 150 146 143 145 146 148 154 147 138 131 121 309 311 319 13 95 101 95 84 63 34 15 21 48 56 52 38 31 18 1 351 342 331 323 326 30 40 40 36 32 28 26 23 22 21 19 17 14 11 8 5 4 3 3 2 1 360 359 358 357 354 353 352 354 356 358 357 355 353 350
172 178 179 181 182 181 175 177 172 161 148 149 149 147 140 138 138 140 144 147 148 149 152 139 135 135 137 165 244 284 307 108 109 100 87 70 40 12 12 42 57 57 45 31 16 1 352 338 328 336 28 40 40 38 34 31 28 25 23 22 21 19 18 15 12 9 6 6 5 4 3 2 0 359 358 356 354 353 354 357 359 0 359 356 354 351
181 184 183 183 178 171 167 172 170 165 161 160 154 146 137 135 135 138 144 146 146 143 139 129 121 121 125 150 202 253 289 120 110 102 89 75 43 12 3 29 50 55 49 32 15 360 350 339 350 14 42 41 39 36 33 31 28 26 23 21 20 19 18 16 13 10 8 7 6 5 4 2 1 360 359 357 355 355 357 1 3 3 1 358 355 352
184 188 189 179 167 162 169 176 175 170 166 160 152 147 145 146 147 146 147 139 132 125 121 114 114 115 118 137 185 260 293 84 97 96 92 82 50 13 357 22 45 52 50 32 12 358 353 347 354 13 35 36 36 35 32 31 29 26 24 21 20 19 18 16 14 12 10 8 7 6 4 3 1 0 359 357 356 356 360 3 4 4 2 360 357 354
185 191 192 173 162 162 173 174 171 165 159 151 145 142 146 148 150 152 150 136 120 106 95 93 102 113 121 125 133 298 311 62 101 103 99 84 52 14 353 13 45 57 52 32 12 358 356 358 351 357 22 34 35 34 31 30 29 28 25 22 20 19 18 17 15 13 11 9 8 6 5 4 2 1 360 358 357 358 1 4 6 5 4 1 359 356
184 184 176 161 158 160 161 155 154 153 151 149 148 149 152 153 155 156 153 137 118 103 93 92 96 101 104 102 85 15 348 44 102 116 106 90 53 6 341 352 38 62 55 28 5 355 360 6 1 2 14 29 33 33 31 30 29 28 26 23 21 19 18 17 16 14 12 10 8 7 5 4 3 2 0 358 357 358 2 5 6 6 5 3 0 358
161 151 137 135 136 137 133 134 139 145 149 149 149 149 147 149 150 149 146 131 115 107 101 101 99 95 92 91 76 48 30 35 61 96 103 99 77 356 334 343 25 62 58 19 351 349 4 15 10 5 8 24 29 31 32 30 29 28 26 23 21 20 19 18 16 14 13 11 9 7 6 5 4 3 1 359 358 359 2 6 7 7 6 3 1 358
110 112 114 114 114 116 119 126 132 136 137 128 114 100 92 100 107 111 112 108 107 108 110 109 103 94 85 80 68 50 33 28 36 65 96 100 103 48 330 347 28 61 62 358 327 337 6 18 14 6 1 19 25 29 31 30 29 27 25 23 21 20 19 18 16 15 13 11 9 8 7 6 5 4 2 360 359 359 3 6 9 9 8 4 1 358
103 106 108 110 114 118 122 127 130 129 124 113 103 96 92 91 91 91 91 97 104 111 117 112 106 98 89 73 60 43 25 22 30 53 97 106 120 142 317 351 32 68 58 312 309 330 14 19 13 5 2 12 19 24 29 30 29 26 24 22 21 20 20 18 16 14 13 11 10 9 8 7 6 5 3 1 360 0 3 8 10 10 8 4 0 356
106 109 112 114 117 120 123 125 125 124 121 117 114 113 112 108 103 100 99 107 118 124 123 114 108 104 96 77 58 34 9 16 26 47 93 108 123 140 295 345 42 86 75 307 315 339 30 26 12 1 360 3 11 18 24 27 27 25 23 20 19 19 19 18 16 14 12 11 10 9 9 8 7 6 4 2 1 1 3 8 11 11 9 5 359 354
108 110 112 114 116 119 121 121 120 119 118 119 121 123 124 120 116 114 120 135 144 142 131 123 119 113 99 82 66 36 355 8 23 41 78 103 110 119 272 306 28 95 101 314 319 351 41 34 13 357 352 347 354 6 19 21 22 21 19 16 16 16 18 17 16 14 12 11 10 10 9 8 7 6 5 4 2 2 3 8 11 11 9 5 358 350
107 109 111 112 113 114 115 115 115 116 117 119 123 125 126 124 125 132 148 158 157 147 134 131 130 127 117 108 101 59 338 359 14 39 85 96 101 121 242 263 261 112 124 261 325 346 23 19 359 343 339 340 346 359 10 14 15 15 13 11 11 12 14 16 15 13 12 12 11 10 10 8 7 7 6 5 4 3 3 7 10 10 8 2 354 342
103 105 105 105 106 106 107 108 109 111 112 112 113 111 105 112 131 145 159 160 154 143 134 131 128 125 121 119 116 98 315 323 345 88 110 95 97 130 237 262 306 112 127 100 4 348 351 338 323 319 323 338 347 354 357 5 7 7 5 4 4 6 10 13 13 12 12 12 12 11 10 9 8 7 7 6 5 4 3 6 8 9 5 356 346 336
97 95 93 93 92 92 92 94 96 98 98 95 90 82 64 70 108 139 152 154 149 142 134 129 125 124 124 122 118 98 294 276 222 146 119 101 107 168 234 269 302 209 132 105 69 21 347 324 314 309 312 332 340 344 344 352 356 357 356 355 355 358 4 8 10 10 10 11 11 12 11 10 9 8 7 6 5 4 4 5 7 8 1 347 340 335
93 88 82 79 77 75 74 74 77 80 81 79 76 72 64 63 76 103 129 144 144 139 134 131 132 135 138 134 132 149 239 235 186 140 116 107 119 162 184 165 240 256 183 129 117 104 21 319 314 314 320 327 331 335 339 343 348 349 348 347 345 348 357 3 5 6 6 8 10 11 12 11 10 9 8 7 5 4 4 5 5 5 357 345 339 335
95 90 85 80 75 72 70 70 70 70 71 70 70 71 73 74 74 78 89 112 126 129 129 131 134 137 139 134 134 146 181 196 173 142 115 109 116 140 159 149 167 242 255 134 130 129 133 232 300 309 322 323 325 327 331 337 343 348 347 345 338 340 351 357 0 1 360 3 5 8 9 10 10 9 8 7 6 5 4 4 4 2 355 345 338 335
96 91 87 83 80 77 75 74 74 74 73 71 71 71 72 72 73 72 66 64 83 106 121 129 132 131 123 109 106 114 143 174 167 143 120 113 116 131 150 143 148 171 268 86 102 112 120 145 244 294 311 312 314 316 321 330 338 344 347 343 332 331 343 350 353 352 351 354 356 359 3 7 8 8 7 6 6 5 4 4 3 1 356 346 338 335
98 95 92 88 85 82 80 80 80 81 81 80 78 75 72 71 71 69 65 57 59 71 96 120 131 136 136 123 112 106 125 194 167 138 118 112 115 129 141 138 146 146 113 75 66 72 86 105 149 288 310 310 310 311 312 319 327 333 334 331 322 320 331 339 342 342 341 342 342 344 352 0 4 5 4 5 5 4 4 3 2 0 357 351 344 338
102 98 95 93 92 91 90 88 87 87 86 84 81 79 77 75 73 71 68 65 63 61 63 79 108 130 141 138 136 138 159 202 183 147 118 115 118 125 128 138 152 143 112 103 94 87 86 86 112 122 357 332 321 312 304 304 313 320 321 321 320 320 324 329 331 333 334 337 336 337 344 354 359 360 359 2 3 3 3 2 1 360 358 354 350 345
107 103 101 101 102 102 101 100 98 95 91 87 84 82 81 79 76 73 70 70 71 71 69 65 64 75 104 123 129 134 148 173 172 142 114 117 120 122 121 147 160 148 117 115 113 115 116 116 95 66 58 20 338 317 306 309 319 328 329 330 331 332 329 324 324 327 336 341 344 346 351 357 357 356 354 360 1 1 0 359 359 359 357 355 352 349
111 110 109 109 110 110 110 108 106 104 102 99 96 92 88 85 82 78 74 71 73 75 76 74 70 67 66 76 93 109 125 133 124 105 98 107 114 117 119 140 155 145 125 126 127 126 118 108 80 48 46 39 340 301 303 320 334 339 333 330 329 331 330 324 325 333 345 349 350 353 356 358 357 354 351 357 358 358 357 356 356 357 356 354 351 349
115 115 115 115 116 116 117 115 114 114 115 114 110 104 98 93 89 86 81 77 76 77 80 78 77 76 76 80 85 91 102 104 100 94 90 93 98 104 112 116 114 110 121 132 133 128 115 106 93 68 32 334 280 273 283 315 329 328 318 315 316 320 320 319 328 343 357 354 354 354 357 356 354 351 349 352 353 353 351 350 351 354 355 351 349 348
121 121 123 123 122 122 122 122 123 122 121 119 116 112 106 99 93 88 84 82 80 79 80 82 83 84 83 88 91 92 93 94 96 96 91 88 89 96 106 109 111 107 95 108 111 110 107 108 111 114 119 293 290 290 295 307 308 308 308 315 323 326 319 321 336 352 1 356 354 354 353 350 350 350 347 347 348 349 347 341 346 352 354 350 346 344
126 126 125 125 124 123 124 125 126 127 125 121 119 116 113 106 99 92 87 86 84 83 82 83 84 83 80 81 80 78 75 78 85 90 91 89 92 100 107 115 125 133 129 90 86 93 99 106 113 125 140 162 247 283 297 297 297 305 323 334 335 329 320 329 342 353 358 355 354 352 349 346 347 349 350 351 352 351 346 337 339 345 353 351 347 343
128 126 124 122 119 117 117 121 124 126 127 127 125 123 121 116 112 106 100 95 93 92 92 90 85 77 64 52 43 37 37 38 46 60 86 100 105 106 107 117 125 128 121 95 83 86 99 110 116 126 141 163 216 265 278 274 293 313 334 331 314 300 304 322 338 349 352 349 349 351 355 351 349 348 347 349 350 346 343 336 336 342 351 350 349 346
128 126 125 122 120 119 121 123 124 127 128 128 128 129 130 128 126 124 122 118 115 111 109 108 103 95 81 59 34 18 15 13 17 33 75 105 111 112 111 119 125 123 114 95 82 78 93 114 126 141 158 161 161 293 299 287 298 314 333 308 296 298 308 320 329 339 352 346 344 349 1 355 345 339 339 342 341 339 343 341 345 348 350 343 337 329
125 123 121 121 123 126 129 128 130 132 134 131 131 132 136 136 135 133 130 129 129 129 123 117 115 113 108 95 61 13 354 349 349 357 43 107 120 123 125 130 132 128 116 104 92 78 69 96 123 148 165 152 141 135 294 303 310 313 302 297 309 327 341 328 325 329 343 342 343 347 357 346 331 323 332 338 340 341 342 344 346 347 345 338 331 326
120 119 119 122 124 127 129 133 136 140 140 136 134 134 137 139 136 132 128 129 131 131 128 119 110 106 104 105 102 68 348 343 346 349 350 201 173 151 132 137 137 132 119 116 115 110 90 79 96 183 167 139 134 145 273 297 303 305 296 305 322 342 342 322 324 329 337 337 338 343 349 337 324 319 332 339 341 341 342 343 341 340 339 336 333 330
119 121 124 127 130 132 135 139 141 142 139 136 135 136 138 137 135 132 130 130 129 128 125 122 115 109 103 109 112 106 34 351 348 347 344 280 210 184 154 147 143 136 125 126 130 132 129 135 161 215 87 95 107 177 262 281 292 299 303 318 327 326 305 309 321 332 336 333 332 333 337 341 351 357 357 348 342 339 338 339 339 337 338 338 337 334
123 127 130 132 134 136 139 140 140 138 134 132 132 133 133 127 124 126 130 130 128 126 123 112 110 115 121 127 127 119 102 60 359 340 339 333 309 204 167 161 157 151 137 135 132 133 136 144 147 135 83 59 32 287 248 255 273 289 299 319 328 328 314 317 323 330 331 331 328 326 327 353 21 27 9 347 337 332 332 334 334 335 336 338 337 334
131 132 134 134 134 135 137 138 138 136 134 133 133 132 128 122 120 122 126 128 127 125 118 94 92 104 120 128 131 128 127 126 119 334 331 337 343 356 131 154 159 156 140 136 130 125 127 136 136 128 106 75 13 306 268 250 253 268 285 307 324 333 327 329 328 327 328 333 328 324 331 7 24 23 3 344 334 330 330 332 330 330 333 336 336 333
134 134 134 134 134 135 137 140 140 138 136 135 134 133 134 135 134 132 128 130 127 123 116 105 102 104 112 118 127 132 134 135 138 144 209 323 345 24 59 69 82 92 93 85 77 78 92 124 136 137 132 133 167 266 281 272 263 265 280 301 316 324 323 330 329 328 331 336 331 330 351 25 31 20 2 353 343 335 331 332 332 332 333 336 334 330
133 133 134 135 136 138 142 145 144 141 139 138 136 136 136 138 136 134 130 129 123 118 116 118 119 119 120 123 127 128 126 127 130 137 156 177 140 85 64 58 57 54 45 36 32 32 34 56 157 175 173 173 186 221 271 284 289 293 299 300 302 306 317 327 329 330 336 340 339 341 7 47 78 86 61 17 354 338 332 333 332 331 331 333 332 327
131 132 135 137 139 142 146 147 146 143 141 140 138 137 134 130 128 126 123 118 112 110 112 120 124 127 129 132 132 128 122 116 106 95 55 239 121 90 73 63 60 57 47 34 27 23 23 20 340 226 213 206 206 215 254 282 303 317 326 306 293 297 317 325 324 326 338 344 344 346 5 10 27 59 69 33 359 340 334 336 334 330 326 327 328 326
131 133 135 137 141 144 147 147 146 144 143 141 139 136 133 130 127 123 116 111 107 106 105 110 118 126 132 133 132 129 124 116 108 102 101 326 74 76 70 63 65 68 67 57 39 26 26 31 16 313 240 216 212 211 224 248 291 327 347 338 323 315 322 317 312 317 334 340 341 347 2 4 5 7 26 16 357 346 342 340 333 327 321 323 324 324